Flag for Honduras Weather past 2 weeks in Choloma, Honduras

Now
77 °F

Passing clouds.


Feels Like: 78 °F
Forecast: 77 / 89 °F
Wind: 5 mph from Southwest

Location: La Mesa San Pedro Sula

Current Time: Sep 20, 2014 at 6:24:50 AM

Latest Report: Sep 20, 2014 at 3:00 AM


Visibility: N/A

Pressure: 29.83 "Hg

Humidity: 89%

Dew point: 73 °F

Location of CholomaLocation

Historic Weather in Choloma — Graph

°F

Choloma temperature yesterday

Maximum temperature yesterday: 95 °F (at 2:00 PM)
Minimum temperature yesterday: 73 °F (at 4:00 AM)
Average temperature yesterday: 82 °F

Past Weeks' High & Low Weather Summary

 TemperatureHumidityPressure
High95 °F (Sep 19, 2:00 PM)100% (Sep 5, 6:00 AM)30.01 "Hg (Sep 5, 6:00 AM)
Low73 °F (Sep 5, 6:00 AM)49% (Sep 12, 1:00 PM)29.74 "Hg (Sep 11, 3:00 PM)
Average81 °F83%29.88 "Hg
* Reported Sep 5 6:00 AM — Sep 20 3:00 AM, Choloma, Weather by CustomWeather, © 2014

Note: Actual official high and low records may vary slightly from our data, if they occured in-between our weather recording intervals... More about our weather records

Advertising

Choloma weather history for previous 24 hours

 ConditionsComfort  
Time TempWeatherWind HumidityBarometerVisibility
3:00 AM
Sep 20
77 °FPassing clouds.5 mph89%29.83 "HgN/A
1:00 AM79 °FPassing clouds.7 mph89%29.86 "HgN/A
12:00 AM79 °FPassing clouds.5 mph89%29.86 "HgN/A
11:00 PM
Sep 19
81 °FPassing clouds.7 mph89%29.89 "HgN/A
10:00 PM81 °FPassing clouds.No wind89%29.86 "HgN/A
8:00 PM82 °FPassing clouds.5 mph79%29.83 "HgN/A
7:00 PM82 °FPassing clouds.5 mph79%29.83 "HgN/A
6:00 PM84 °FPassing clouds.9 mph74%29.80 "HgN/A
5:00 PM88 °FPartly sunny.12 mph62%29.80 "HgN/A
4:00 PM90 °FPartly sunny.14 mph63%29.77 "HgN/A
3:00 PM75 °FPartly sunny.9 mph89%29.77 "HgN/A
2:00 PM95 °FPartly sunny.5 mph50%29.80 "HgN/A
1:00 PM91 °FPartly sunny.2 mph52%29.83 "HgN/A
12:00 PM91 °FPartly sunny.2 mph52%29.86 "HgN/A
11:00 AM90 °FPartly sunny.No wind59%29.89 "HgN/A
10:00 AM88 °FPartly sunny.7 mph62%29.92 "HgN/A
9:00 AM84 °FPartly sunny.No wind74%29.92 "HgN/A
8:00 AM81 °FPartly sunny.No wind79%29.92 "HgN/A
7:00 AM77 °FPartly sunny.No wind94%29.92 "HgN/A
6:00 AM73 °FSunny.No wind100%29.89 "Hg10 mi
Weather by CustomWeather, © 2014

See weather overviewHow to use our weather pages